,,,PA_Meas_PMT16A,,PR_Meas_QMR101_102,,RH_Meas_QMH101,,SR_Meas_QMS101,,TA_Meas_QMH101,,GenWind,,GenWind,
date,time,status,PA,status,PR,status,RH,status,SR,status,TA,status,DirAvg,status,SpdAvg,
2011-11-18, 00:00:04,VALID,1002.97,VALID,0,VALID,83.2387,VALID,0,VALID,25.9408,VALID,286,VALID,0.362109,
2011-11-18, 00:01:04,VALID,1002.96,VALID,0,VALID,83.2387,VALID,0,VALID,25.9213,VALID,286,VALID,0.188281,
2011-11-18, 00:02:04,VALID,1002.96,VALID,0,VALID,83.2311,VALID,0,VALID,25.9018,VALID,344,VALID,1.05547,
2011-11-18, 00:03:04,VALID,1002.96,VALID,0,VALID,83.4065,VALID,0,VALID,25.9232,VALID,284,VALID,0.608594,
2011-11-18, 00:04:04,VALID,1002.95,VALID,0,VALID,83.2769,VALID,0,VALID,25.9018,VALID,333,VALID,0.689062,
2011-11-18, 00:05:04,VALID,1002.94,VALID,0,VALID,83.4218,VALID,0,VALID,25.9018,VALID,296,VALID,0.808984,
2011-11-18, 00:06:04,VALID,1002.93,VALID,0,VALID,83.3455,VALID,0,VALID,25.8998,VALID,219,VALID,0.563672,
2011-11-18, 00:07:04,VALID,1002.93,VALID,0,VALID,83.4371,VALID,0,VALID,25.9213,VALID,307,VALID,0.580469,
2011-11-18, 00:08:04,VALID,1002.93,VALID,0,VALID,83.3531,VALID,0,VALID,25.9018,VALID,282,VALID,0.417969,
2011-11-18, 00:09:04,VALID,1002.94,VALID,0,VALID,83.4981,VALID,0,VALID,25.8998,VALID,323,VALID,0.296484,
2011-11-18, 00:10:04,VALID,1002.96,VALID,0,VALID,83.4523,VALID,0,VALID,25.9427,VALID,303,VALID,0.747266,
2011-11-18, 00:11:04,VALID,1002.94,VALID,0,VALID,83.5134,VALID,0,VALID,25.9213,VALID,287,VALID,0.913281,
2011-11-18, 00:12:04,VALID,1002.93,VALID,0,VALID,83.7193,VALID,0,VALID,25.9213,VALID,350,VALID,0.192578,
2011-11-18, 00:13:04,VALID,1002.93,VALID,0,VALID,83.727,VALID,0,VALID,25.9213,VALID,315,VALID,0.312109,
2011-11-18, 00:14:04,VALID,1002.93,VALID,0,VALID,83.7804,VALID,0,VALID,25.9213,VALID,318,VALID,0.294141,
2011-11-18, 00:15:04,VALID,1002.96,VALID,0,VALID,83.9253,VALID,0,VALID,25.9018,VALID,316,VALID,0.241797,
2011-11-18, 00:16:04,VALID,1002.94,VALID,0,VALID,83.9253,VALID,0,VALID,25.8823,VALID,5,VALID,0.334766,
2011-11-18, 00:17:04,VALID,1002.91,VALID,0,VALID,83.994,VALID,0.0815089,VALID,25.8823,VALID,298,VALID,0.416406,
2011-11-18, 00:18:04,VALID,1002.9,VALID,0,VALID,84.0626,VALID,0,VALID,25.8629,VALID,303,VALID,0.399219,
2011-11-18, 00:19:04,VALID,1002.89,VALID,0,VALID,84.1084,VALID,0,VALID,25.8434,VALID,308,VALID,0.00195313,
2011-11-18, 00:20:04,VALID,1002.9,VALID,0,VALID,84.1008,VALID,0,VALID,25.8025,VALID,321,VALID,0.428516,
2011-11-18, 00:21:04,VALID,1002.88,VALID,0,VALID,84.3296,VALID,0.0815089,VALID,25.8044,VALID,348,VALID,0.0503906,
2011-11-18, 00:22:04,VALID,1002.87,VALID,0,VALID,84.5051,VALID,0,VALID,25.785,VALID,348,VALID,0.00429688,
2011-11-18, 00:23:04,VALID,1002.86,VALID,0,VALID,84.5204,VALID,0,VALID,25.7655,VALID,348,VALID,0.388672,
2011-11-18, 00:24:04,VALID,1002.81,VALID,0,VALID,84.4746,VALID,0,VALID,25.7674,VALID,359,VALID,0.716797,
2011-11-18, 00:25:04,VALID,1002.8,VALID,0,VALID,84.7187,VALID,0,VALID,25.746,VALID,358,VALID,0.0925781,
2011-11-18, 00:26:04,VALID,1002.76,VALID,0,VALID,84.8408,VALID,0,VALID,25.7265,VALID,358,VALID,0.253906,
2011-11-18, 00:27:04,VALID,1002.74,VALID,0,VALID,84.7416,VALID,0,VALID,25.7071,VALID,343,VALID,0.405078,
2011-11-18, 00:28:04,VALID,1002.72,VALID,0,VALID,84.8637,VALID,0,VALID,25.7071,VALID,343,VALID,0.0332031,
2011-11-18, 00:29:04,VALID,1002.68,VALID,0,VALID,84.8179,VALID,0,VALID,25.7285,VALID,348,VALID,0.398828,
2011-11-18, 00:30:04,VALID,1002.68,VALID,0,VALID,84.8484,VALID,0.0815089,VALID,25.7071,VALID,347,VALID,0.976953,
2011-11-18, 00:31:04,VALID,1002.66,VALID,0,VALID,84.589,VALID,0,VALID,25.7285,VALID,340,VALID,0.719531,
2011-11-18, 00:32:04,VALID,1002.63,VALID,0,VALID,84.5967,VALID,0.0815089,VALID,25.748,VALID,339,VALID,0.388672,
2011-11-18, 00:33:04,VALID,1002.63,VALID,0,VALID,84.4822,VALID,0,VALID,25.7265,VALID,346,VALID,0.751172,
2011-11-18, 00:34:04,VALID,1002.63,VALID,0,VALID,84.4288,VALID,0,VALID,25.7869,VALID,348,VALID,0.390625,
2011-11-18, 00:35:04,VALID,1002.62,VALID,0,VALID,84.6882,VALID,0,VALID,25.7869,VALID,349,VALID,0.181641,
2011-11-18, 00:36:04,VALID,1002.58,VALID,0,VALID,84.6424,VALID,0,VALID,25.744,VALID,349,VALID,0.276953,
2011-11-18, 00:37:04,VALID,1002.53,VALID,0,VALID,84.6119,VALID,0,VALID,25.746,VALID,344,VALID,0.109766,
2011-11-18, 00:38:04,VALID,1002.55,VALID,0,VALID,84.6806,VALID,0,VALID,25.746,VALID,289,VALID,0.114453,
2011-11-18, 00:39:04,VALID,1002.53,VALID,0,VALID,84.9934,VALID,0,VALID,25.746,VALID,303,VALID,0.294141,
2011-11-18, 00:40:04,VALID,1002.51,VALID,0,VALID,84.8408,VALID,0,VALID,25.7674,VALID,323,VALID,0.206641,
2011-11-18, 00:41:04,VALID,1002.51,VALID,0,VALID,84.8866,VALID,0,VALID,25.748,VALID,347,VALID,0.203906,
2011-11-18, 00:42:04,VALID,1002.5,VALID,0,VALID,84.7645,VALID,0,VALID,25.7265,VALID,347,VALID,0.119141,
2011-11-18, 00:43:04,VALID,1002.52,VALID,0,VALID,84.6882,VALID,0,VALID,25.7265,VALID,310,VALID,0.458984,
2011-11-18, 00:44:04,VALID,1002.51,VALID,0,VALID,84.6424,VALID,0,VALID,25.746,VALID,284,VALID,0.529688,
2011-11-18, 00:45:04,VALID,1002.5,VALID,0,VALID,84.589,VALID,0,VALID,25.7869,VALID,284,VALID,0.0316406,
2011-11-18, 00:46:04,VALID,1002.5,VALID,0,VALID,84.6729,VALID,0,VALID,25.7655,VALID,284,VALID,0.116406,
2011-11-18, 00:47:04,VALID,1002.48,VALID,0,VALID,84.5204,VALID,0,VALID,25.785,VALID,285,VALID,0.137891,
2011-11-18, 00:48:04,VALID,1002.45,VALID,0,VALID,84.589,VALID,0,VALID,25.785,VALID,286,VALID,0.2875,
2011-11-18, 00:49:04,VALID,1002.47,VALID,0,VALID,84.6119,VALID,0,VALID,25.7655,VALID,297,VALID,0.115625,
2011-11-18, 00:50:04,VALID,1002.42,VALID,0,VALID,84.5967,VALID,0,VALID,25.7869,VALID,299,VALID,0.00742187,
2011-11-18, 00:51:04,VALID,1002.4,VALID,0,VALID,84.7111,VALID,0,VALID,25.7869,VALID,341,VALID,0.602734,
2011-11-18, 00:52:04,VALID,1002.37,VALID,0,VALID,84.6882,VALID,0,VALID,25.746,VALID,343,VALID,0.405469,
2011-11-18, 00:53:04,VALID,1002.34,VALID,0,VALID,84.8103,VALID,0,VALID,25.7655,VALID,356,VALID,0.555859,
2011-11-18, 00:54:04,VALID,1002.36,VALID,0,VALID,84.734,VALID,0,VALID,25.7246,VALID,355,VALID,0.850391,
2011-11-18, 00:55:04,VALID,1002.35,VALID,0,VALID,84.7797,VALID,0,VALID,25.746,VALID,350,VALID,0.741016,
2011-11-18, 00:56:04,VALID,1002.32,VALID,0,VALID,84.8408,VALID,0,VALID,25.746,VALID,353,VALID,0.663281,
2011-11-18, 00:57:04,VALID,1002.31,VALID,0,VALID,84.9857,VALID,0,VALID,25.7265,VALID,6,VALID,0.476172,
2011-11-18, 00:58:04,VALID,1002.3,VALID,0,VALID,84.8942,VALID,0.0815089,VALID,25.746,VALID,339,VALID,0.489844,
2011-11-18, 00:59:04,VALID,1002.28,VALID,0,VALID,84.8103,VALID,0,VALID,25.746,VALID,350,VALID,0.56875,
2011-11-18, 01:00:04,VALID,1002.28,VALID,0,VALID,84.8866,VALID,0,VALID,25.7674,VALID,350,VALID,0.692969,
2011-11-18, 01:01:04,VALID,1002.28,VALID,0,VALID,84.8713,VALID,0.0815089,VALID,25.746,VALID,327,VALID,0.337109,
2011-11-18, 01:02:04,VALID,1002.27,VALID,0,VALID,84.8408,VALID,0,VALID,25.7265,VALID,333,VALID,0.357422,
2011-11-18, 01:03:04,VALID,1002.28,VALID,0,VALID,84.9476,VALID,0,VALID,25.748,VALID,333,VALID,0.216797,
2011-11-18, 01:04:04,VALID,1002.22,VALID,0,VALID,85.0391,VALID,0,VALID,25.7071,VALID,335,VALID,0.257813,
2011-11-18, 01:05:04,VALID,1002.26,VALID,0,VALID,85.0544,VALID,0,VALID,25.7265,VALID,340,VALID,0.626172,
2011-11-18, 01:06:04,VALID,1002.24,VALID,0,VALID,85.1765,VALID,0,VALID,25.7051,VALID,346,VALID,0.504297,
2011-11-18, 01:07:04,VALID,1002.22,VALID,0,VALID,85.1993,VALID,0,VALID,25.7071,VALID,348,VALID,0.753906,
2011-11-18, 01:08:04,VALID,1002.21,VALID,0,VALID,85.3367,VALID,0,VALID,25.709,VALID,347,VALID,0.65625,
2011-11-18, 01:09:04,VALID,1002.19,VALID,0,VALID,85.4282,VALID,0,VALID,25.6876,VALID,349,VALID,0.310156,
2011-11-18, 01:10:04,VALID,1002.19,VALID,0,VALID,85.5274,VALID,0,VALID,25.6681,VALID,349,VALID,0.565234,
2011-11-18, 01:11:04,VALID,1002.2,VALID,0,VALID,85.6876,VALID,0.0815089,VALID,25.6292,VALID,348,VALID,0.575391,
2011-11-18, 01:12:04,VALID,1002.15,VALID,0,VALID,85.8173,VALID,0,VALID,25.6292,VALID,344,VALID,0.744141,
2011-11-18, 01:13:04,VALID,1002.07,VALID,0,VALID,85.8402,VALID,0,VALID,25.6077,VALID,345,VALID,0.586328,
2011-11-18, 01:14:04,VALID,1002.07,VALID,0,VALID,86.0538,VALID,0,VALID,25.6097,VALID,345,VALID,0.539453,
2011-11-18, 01:15:04,VALID,1002.06,VALID,0,VALID,86.1072,VALID,0,VALID,25.6097,VALID,339,VALID,0.663281,
2011-11-18, 01:16:04,VALID,1002.01,VALID,0,VALID,86.2903,VALID,0,VALID,25.5883,VALID,359,VALID,0.6875,
2011-11-18, 01:17:04,VALID,1001.99,VALID,0,VALID,86.2216,VALID,0.0815089,VALID,25.5883,VALID,356,VALID,0.358203,
2011-11-18, 01:18:04,VALID,1001.97,VALID,0,VALID,86.3208,VALID,0.0815089,VALID,25.6097,VALID,354,VALID,0.329297,
2011-11-18, 01:19:04,VALID,1001.93,VALID,0,VALID,86.4428,VALID,0,VALID,25.5883,VALID,344,VALID,0.544922,
2011-11-18, 01:20:04,VALID,1001.91,VALID,0,VALID,86.481,VALID,0.0815089,VALID,25.5688,VALID,335,VALID,0.744531,
2011-11-18, 01:21:04,VALID,1001.85,VALID,0,VALID,86.5954,VALID,0.0815089,VALID,25.6116,VALID,352,VALID,0.816797,
2011-11-18, 01:22:04,VALID,1001.86,VALID,0,VALID,86.6793,VALID,0,VALID,25.5688,VALID,350,VALID,0.516406,
2011-11-18, 01:23:04,VALID,1001.82,VALID,0,VALID,86.6641,VALID,0.0815089,VALID,25.5493,VALID,348,VALID,0.503516,
2011-11-18, 01:24:04,VALID,1001.81,VALID,0,VALID,86.7404,VALID,0,VALID,25.5902,VALID,347,VALID,0.312891,
2011-11-18, 01:25:04,VALID,1001.77,VALID,0,VALID,86.8472,VALID,0.0815089,VALID,25.5902,VALID,347,VALID,0.6,
2011-11-18, 01:26:04,VALID,1001.75,VALID,0,VALID,86.8624,VALID,0,VALID,25.5688,VALID,343,VALID,0.592188,
2011-11-18, 01:27:04,VALID,1001.73,VALID,0,VALID,86.7556,VALID,0,VALID,25.6097,VALID,343,VALID,0.244141,
2011-11-18, 01:28:04,VALID,1001.73,VALID,0,VALID,86.7022,VALID,0.0815089,VALID,25.6272,VALID,344,VALID,0.583984,
2011-11-18, 01:29:04,VALID,1001.71,VALID,0,VALID,86.5496,VALID,0.0815089,VALID,25.6486,VALID,345,VALID,0.299219,
2011-11-18, 01:30:04,VALID,1001.66,VALID,0,VALID,86.5573,VALID,0,VALID,25.6467,VALID,345,VALID,0.386328,
2011-11-18, 01:31:04,VALID,1001.68,VALID,0,VALID,86.5191,VALID,0.0815089,VALID,25.6876,VALID,349,VALID,0.655469,
2011-11-18, 01:32:04,VALID,1001.65,VALID,0,VALID,86.4581,VALID,0.0815089,VALID,25.6662,VALID,344,VALID,0.629687,
2011-11-18, 01:33:04,VALID,1001.62,VALID,0,VALID,86.4886,VALID,0,VALID,25.6467,VALID,344,VALID,0.701172,
2011-11-18, 01:34:04,VALID,1001.64,VALID,0,VALID,86.6793,VALID,0.0815089,VALID,25.6486,VALID,347,VALID,0.775781,
2011-11-18, 01:35:04,VALID,1001.63,VALID,0,VALID,86.6031,VALID,0.0815089,VALID,25.6272,VALID,347,VALID,1,
2011-11-18, 01:36:04,VALID,1001.64,VALID,0,VALID,86.6565,VALID,0.0815089,VALID,25.6272,VALID,352,VALID,0.879687,
2011-11-18, 01:37:04,VALID,1001.62,VALID,0,VALID,86.6412,VALID,0,VALID,25.6272,VALID,354,VALID,1.0168,
2011-11-18, 01:38:04,VALID,1001.61,VALID,0,VALID,86.7404,VALID,0.0815089,VALID,25.6097,VALID,343,VALID,0.86875,
2011-11-18, 01:39:04,VALID,1001.58,VALID,0,VALID,86.9464,VALID,0.0815089,VALID,25.5707,VALID,347,VALID,0.619922,
2011-11-18, 01:40:04,VALID,1001.59,VALID,0,VALID,87.1752,VALID,0,VALID,25.5513,VALID,352,VALID,1.23477,
2011-11-18, 01:41:04,VALID,1001.54,VALID,0,VALID,87.2134,VALID,0,VALID,25.5298,VALID,352,VALID,0.725,
2011-11-18, 01:42:04,VALID,1001.51,VALID,0,VALID,87.2439,VALID,0.0815089,VALID,25.5318,VALID,351,VALID,0.910547,
2011-11-18, 01:43:04,VALID,1001.48,VALID,0,VALID,87.221,VALID,0,VALID,25.5318,VALID,352,VALID,0.544922,
2011-11-18, 01:44:04,VALID,1001.46,VALID,0,VALID,87.3659,VALID,0,VALID,25.4909,VALID,350,VALID,0.593359,
2011-11-18, 01:45:04,VALID,1001.46,VALID,0,VALID,87.4193,VALID,0,VALID,25.5142,VALID,350,VALID,0.79375,
2011-11-18, 01:46:04,VALID,1001.43,VALID,0,VALID,87.5567,VALID,0.0815089,VALID,25.4909,VALID,351,VALID,0.852734,
2011-11-18, 01:47:04,VALID,1001.44,VALID,0,VALID,87.5643,VALID,0,VALID,25.5104,VALID,357,VALID,1.0957,
2011-11-18, 01:48:04,VALID,1001.41,VALID,0,VALID,87.3736,VALID,0.0815089,VALID,25.5513,VALID,343,VALID,0.531641,
2011-11-18, 01:49:04,VALID,1001.39,VALID,0,VALID,87.16,VALID,0.0815089,VALID,25.6097,VALID,339,VALID,0.150391,
2011-11-18, 01:50:04,VALID,1001.39,VALID,0,VALID,87.0837,VALID,0.0815089,VALID,25.6077,VALID,339,VALID,0.455078,
2011-11-18, 01:51:04,VALID,1001.38,VALID,0,VALID,87.0532,VALID,0.0815089,VALID,25.6292,VALID,351,VALID,0.575391,
2011-11-18, 01:52:04,VALID,1001.37,VALID,0,VALID,86.9387,VALID,0,VALID,25.6486,VALID,331,VALID,0.892578,
2011-11-18, 01:53:04,VALID,1001.4,VALID,0,VALID,86.8319,VALID,0.0815089,VALID,25.6467,VALID,343,VALID,0.682031,
2011-11-18, 01:54:04,VALID,1001.41,VALID,0,VALID,86.7251,VALID,0.0815089,VALID,25.6681,VALID,337,VALID,0.480859,
2011-11-18, 01:55:04,VALID,1001.39,VALID,0,VALID,86.6259,VALID,0.0815089,VALID,25.6681,VALID,356,VALID,0.963672,
2011-11-18, 01:56:04,VALID,1001.4,VALID,0,VALID,86.4962,VALID,0,VALID,25.6681,VALID,350,VALID,0.525391,
2011-11-18, 01:57:04,VALID,1001.39,VALID,0,VALID,86.42,VALID,0.0815089,VALID,25.6681,VALID,345,VALID,0.307813,
2011-11-18, 01:58:04,VALID,1001.43,VALID,0,VALID,86.1758,VALID,0.0815089,VALID,25.6467,VALID,345,VALID,1.01523,
2011-11-18, 01:59:04,VALID,1001.44,VALID,0,VALID,86.1987,VALID,0.0815089,VALID,25.6467,VALID,343,VALID,0.869141,
2011-11-18, 02:00:04,VALID,1001.41,VALID,0,VALID,86.3132,VALID,0.0815089,VALID,25.6272,VALID,353,VALID,0.525391,
2011-11-18, 02:01:04,VALID,1001.41,VALID,0,VALID,86.3666,VALID,0,VALID,25.6077,VALID,355,VALID,0.442969,
2011-11-18, 02:02:04,VALID,1001.44,VALID,0,VALID,86.3894,VALID,0.0815089,VALID,25.6097,VALID,353,VALID,0.519531,
2011-11-18, 02:03:04,VALID,1001.43,VALID,0,VALID,86.4352,VALID,0,VALID,25.5493,VALID,336,VALID,0.542578,
2011-11-18, 02:04:04,VALID,1001.44,VALID,0,VALID,86.542,VALID,0.0815089,VALID,25.5707,VALID,348,VALID,0.848047,
2011-11-18, 02:05:04,VALID,1001.41,VALID,0,VALID,86.5878,VALID,0,VALID,25.5513,VALID,348,VALID,0.410156,
2011-11-18, 02:06:04,VALID,1001.4,VALID,0,VALID,86.6565,VALID,0.0815089,VALID,25.5298,VALID,346,VALID,1.03242,
2011-11-18, 02:07:04,VALID,1001.43,VALID,0,VALID,86.6641,VALID,0.0815089,VALID,25.5318,VALID,350,VALID,0.779297,
2011-11-18, 02:08:04,VALID,1001.43,VALID,0,VALID,86.5573,VALID,0,VALID,25.5513,VALID,343,VALID,0.744531,
2011-11-18, 02:09:04,VALID,1001.4,VALID,0,VALID,86.6183,VALID,0,VALID,25.5707,VALID,344,VALID,0.701563,
2011-11-18, 02:10:04,VALID,1001.43,VALID,0,VALID,86.6412,VALID,0.0815089,VALID,25.5707,VALID,348,VALID,0.565234,
2011-11-18, 02:11:04,VALID,1001.42,VALID,0,VALID,86.687,VALID,0,VALID,25.5318,VALID,349,VALID,0.509375,
2011-11-18, 02:12:04,VALID,1001.45,VALID,0,VALID,86.8701,VALID,0.0815089,VALID,25.5123,VALID,344,VALID,0.214844,
2011-11-18, 02:13:04,VALID,1001.46,VALID,0,VALID,86.954,VALID,0.0815089,VALID,25.5123,VALID,303,VALID,0.397656,
2011-11-18, 02:14:04,VALID,1001.48,VALID,0,VALID,87.0989,VALID,0.0815089,VALID,25.4909,VALID,349,VALID,1.11406,
2011-11-18, 02:15:04,VALID,1001.5,VALID,0,VALID,87.0379,VALID,0,VALID,25.5318,VALID,338,VALID,0.239453,
2011-11-18, 02:16:04,VALID,1001.49,VALID,0,VALID,86.9998,VALID,0,VALID,25.5337,VALID,341,VALID,0.449219,
2011-11-18, 02:17:04,VALID,1001.48,VALID,0,VALID,86.9616,VALID,0,VALID,25.4909,VALID,340,VALID,0.451953,
2011-11-18, 02:18:04,VALID,1001.51,VALID,0,VALID,86.9311,VALID,0,VALID,25.5318,VALID,319,VALID,0.408984,
2011-11-18, 02:19:04,VALID,1001.5,VALID,0,VALID,86.8777,VALID,0.0815089,VALID,25.5123,VALID,336,VALID,0.759766,
2011-11-18, 02:20:04,VALID,1001.52,VALID,0,VALID,86.9158,VALID,0,VALID,25.5318,VALID,345,VALID,0.197266,
2011-11-18, 02:21:04,VALID,1001.5,VALID,0,VALID,86.9387,VALID,0,VALID,25.5123,VALID,345,VALID,0.223438,
2011-11-18, 02:22:04,VALID,1001.54,VALID,0,VALID,86.9311,VALID,0,VALID,25.5123,VALID,345,VALID,0.472656,
2011-11-18, 02:23:04,VALID,1001.5,VALID,0,VALID,86.8777,VALID,0.0815089,VALID,25.4909,VALID,284,VALID,0.126172,
2011-11-18, 02:24:04,VALID,1001.53,VALID,0,VALID,86.8548,VALID,0,VALID,25.5123,VALID,341,VALID,0.307813,
2011-11-18, 02:25:04,VALID,1001.56,VALID,0,VALID,86.8853,VALID,0,VALID,25.5123,VALID,336,VALID,0.00585938,
2011-11-18, 02:26:04,VALID,1001.56,VALID,0,VALID,86.9235,VALID,0,VALID,25.4928,VALID,315,VALID,0.197656,
2011-11-18, 02:27:04,VALID,1001.57,VALID,0,VALID,87.0608,VALID,0,VALID,25.4714,VALID,343,VALID,0.858203,
2011-11-18, 02:28:04,VALID,1001.58,VALID,0,VALID,87.0913,VALID,0,VALID,25.4928,VALID,319,VALID,0.334375,
2011-11-18, 02:29:04,VALID,1001.6,VALID,0,VALID,87.0989,VALID,0.0815089,VALID,25.4928,VALID,339,VALID,0.498828,
2011-11-18, 02:30:04,VALID,1001.6,VALID,0,VALID,87.1371,VALID,0.0815089,VALID,25.4928,VALID,314,VALID,0.571875,
2011-11-18, 02:31:04,VALID,1001.61,VALID,0,VALID,87.1676,VALID,0,VALID,25.452,VALID,314,VALID,0.154297,
2011-11-18, 02:32:04,VALID,1001.62,VALID,0,VALID,87.2896,VALID,0.0815089,VALID,25.452,VALID,335,VALID,0.433203,
2011-11-18, 02:33:04,VALID,1001.66,VALID,0,VALID,87.3507,VALID,0.0815089,VALID,25.4325,VALID,354,VALID,0.751562,
2011-11-18, 02:34:04,VALID,1001.64,VALID,0,VALID,87.343,VALID,0.0815089,VALID,25.4753,VALID,322,VALID,0.578906,
2011-11-18, 02:35:04,VALID,1001.65,VALID,0,VALID,87.2591,VALID,0,VALID,25.452,VALID,348,VALID,0.380859,
2011-11-18, 02:36:04,VALID,1001.65,VALID,0,VALID,87.343,VALID,0,VALID,25.4539,VALID,352,VALID,0.485938,
2011-11-18, 02:37:04,VALID,1001.65,VALID,0,VALID,87.3583,VALID,0,VALID,25.4539,VALID,350,VALID,0.896094,
2011-11-18, 02:38:04,VALID,1001.67,VALID,0,VALID,87.3583,VALID,0.0815089,VALID,25.4325,VALID,355,VALID,0.71875,
2011-11-18, 02:39:04,VALID,1001.66,VALID,0,VALID,87.4041,VALID,0,VALID,25.4325,VALID,352,VALID,0.465625,
2011-11-18, 02:40:04,VALID,1001.65,VALID,0,VALID,87.4575,VALID,0,VALID,25.4344,VALID,352,VALID,0.249609,
2011-11-18, 02:41:04,VALID,1001.66,VALID,0,VALID,87.4193,VALID,0,VALID,25.4344,VALID,346,VALID,0.812109,
2011-11-18, 02:42:04,VALID,1001.68,VALID,0,VALID,87.4575,VALID,0.0815089,VALID,25.413,VALID,332,VALID,0.220703,
2011-11-18, 02:43:04,VALID,1001.69,VALID,0,VALID,87.4727,VALID,0,VALID,25.4344,VALID,351,VALID,0.664063,
2011-11-18, 02:44:04,VALID,1001.69,VALID,0,VALID,87.4575,VALID,0.0815089,VALID,25.4344,VALID,347,VALID,0.0175781,
2011-11-18, 02:45:04,VALID,1001.68,VALID,0,VALID,87.4956,VALID,0.0815089,VALID,25.3935,VALID,346,VALID,0.252734,
2011-11-18, 02:46:04,VALID,1001.68,VALID,0,VALID,87.5872,VALID,0,VALID,25.3955,VALID,348,VALID,0.467969,
2011-11-18, 02:47:04,VALID,1001.67,VALID,0,VALID,87.6329,VALID,0,VALID,25.4149,VALID,350,VALID,0.794531,
2011-11-18, 02:48:04,VALID,1001.66,VALID,0,VALID,87.6253,VALID,0,VALID,25.4149,VALID,352,VALID,0.311719,
2011-11-18, 02:49:04,VALID,1001.69,VALID,0,VALID,87.6711,VALID,0,VALID,25.3935,VALID,349,VALID,0.307031,
2011-11-18, 02:50:04,VALID,1001.68,VALID,0,VALID,87.6635,VALID,0,VALID,25.3741,VALID,349,VALID,0.330078,
2011-11-18, 02:51:04,VALID,1001.69,VALID,0,VALID,87.6101,VALID,0.0815089,VALID,25.3955,VALID,359,VALID,0.653906,
2011-11-18, 02:52:04,VALID,1001.73,VALID,0,VALID,87.6177,VALID,0,VALID,25.3955,VALID,353,VALID,0.512891,
2011-11-18, 02:53:04,VALID,1001.72,VALID,0,VALID,87.6863,VALID,0,VALID,25.3955,VALID,352,VALID,0.475781,
2011-11-18, 02:54:04,VALID,1001.73,VALID,0,VALID,87.6635,VALID,0,VALID,25.3546,VALID,350,VALID,0,
2011-11-18, 02:55:04,VALID,1001.73,VALID,0,VALID,87.8237,VALID,0.0815089,VALID,25.3565,VALID,350,VALID,0.00234375,
2011-11-18, 02:56:04,VALID,1001.73,VALID,0,VALID,87.9762,VALID,0,VALID,25.337,VALID,350,VALID,0,
2011-11-18, 02:57:04,VALID,1001.74,VALID,0,VALID,87.9839,VALID,0,VALID,25.337,VALID,349,VALID,0.425781,
2011-11-18, 02:58:04,VALID,1001.73,VALID,0,VALID,88.0907,VALID,0.0815089,VALID,25.337,VALID,349,VALID,0.289844,
2011-11-18, 02:59:04,VALID,1001.72,VALID,0,VALID,88.0525,VALID,0.0815089,VALID,25.2962,VALID,349,VALID,0.145703,
2011-11-18, 03:00:04,VALID,1001.73,VALID,0,VALID,88.2051,VALID,0.0815089,VALID,25.3176,VALID,349,VALID,0.337891,
2011-11-18, 03:01:04,VALID,1001.71,VALID,0,VALID,88.1746,VALID,0,VALID,25.2981,VALID,353,VALID,0.366016,
2011-11-18, 03:02:04,VALID,1001.68,VALID,0,VALID,88.0754,VALID,0,VALID,25.339,VALID,346,VALID,0.112109,
2011-11-18, 03:03:04,VALID,1001.7,VALID,0,VALID,88.0983,VALID,0,VALID,25.3195,VALID,346,VALID,0.15625,
2011-11-18, 03:04:04,VALID,1001.7,VALID,0,VALID,88.1441,VALID,0,VALID,25.2981,VALID,346,VALID,0.200391,
2011-11-18, 03:05:04,VALID,1001.67,VALID,0,VALID,88.1746,VALID,0,VALID,25.3195,VALID,346,VALID,0.0894531,
2011-11-18, 03:06:04,VALID,1001.67,VALID,0,VALID,88.2356,VALID,0,VALID,25.3,VALID,346,VALID,0.206641,
2011-11-18, 03:07:04,VALID,1001.64,VALID,0,VALID,88.3195,VALID,0,VALID,25.3,VALID,346,VALID,0.558984,
2011-11-18, 03:08:04,VALID,1001.66,VALID,0,VALID,88.3501,VALID,0,VALID,25.3,VALID,347,VALID,0.49375,
2011-11-18, 03:09:04,VALID,1001.63,VALID,0,VALID,88.289,VALID,0,VALID,25.3195,VALID,350,VALID,0.175,
2011-11-18, 03:10:04,VALID,1001.63,VALID,0,VALID,88.4492,VALID,0,VALID,25.2981,VALID,351,VALID,0.619922,
2011-11-18, 03:11:04,VALID,1001.63,VALID,0,VALID,88.3882,VALID,0,VALID,25.2981,VALID,356,VALID,0.78125,
2011-11-18, 03:12:04,VALID,1001.59,VALID,0,VALID,88.3119,VALID,0,VALID,25.339,VALID,356,VALID,0.586719,
2011-11-18, 03:13:04,VALID,1001.55,VALID,0,VALID,88.3272,VALID,0,VALID,25.339,VALID,355,VALID,0.729688,
2011-11-18, 03:14:04,VALID,1001.59,VALID,0,VALID,88.228,VALID,0,VALID,25.3176,VALID,353,VALID,0.438281,
2011-11-18, 03:15:04,VALID,1001.57,VALID,0,VALID,88.2356,VALID,0,VALID,25.3584,VALID,353,VALID,0.574609,
2011-11-18, 03:16:04,VALID,1001.55,VALID,0,VALID,88.1975,VALID,0,VALID,25.337,VALID,349,VALID,0.878906,
2011-11-18, 03:17:04,VALID,1001.58,VALID,0,VALID,88.2585,VALID,0.0815089,VALID,25.2962,VALID,349,VALID,0.682031,
2011-11-18, 03:18:04,VALID,1001.62,VALID,0,VALID,88.2814,VALID,0.0815089,VALID,25.2981,VALID,337,VALID,0.614062,
2011-11-18, 03:19:04,VALID,1001.62,VALID,0,VALID,88.4187,VALID,0,VALID,25.2786,VALID,342,VALID,0.774609,
2011-11-18, 03:20:04,VALID,1001.63,VALID,0,VALID,88.6247,VALID,0,VALID,25.2397,VALID,348,VALID,0.451953,
2011-11-18, 03:21:04,VALID,1001.65,VALID,0,VALID,88.9756,VALID,0.0815089,VALID,25.1988,VALID,333,VALID,0.930859,
2011-11-18, 03:22:04,VALID,1001.67,VALID,0,VALID,88.9299,VALID,0.0815089,VALID,25.2202,VALID,352,VALID,0.654297,
2011-11-18, 03:23:04,VALID,1001.67,VALID,0,VALID,88.9985,VALID,0,VALID,25.2007,VALID,352,VALID,0.516406,
2011-11-18, 03:24:04,VALID,1001.7,VALID,0,VALID,89.1511,VALID,0.0815089,VALID,25.2007,VALID,328,VALID,0.766406,
2011-11-18, 03:25:04,VALID,1001.74,VALID,0,VALID,89.2198,VALID,0.0815089,VALID,25.2183,VALID,323,VALID,0.721094,
2011-11-18, 03:26:04,VALID,1001.72,VALID,0,VALID,89.1587,VALID,0.0815089,VALID,25.2592,VALID,352,VALID,0.844141,
2011-11-18, 03:27:04,VALID,1001.76,VALID,0,VALID,88.9375,VALID,0,VALID,25.2962,VALID,347,VALID,0.902344,
2011-11-18, 03:28:04,VALID,1001.8,VALID,0,VALID,88.5637,VALID,0.0815089,VALID,25.3546,VALID,346,VALID,0.525,
2011-11-18, 03:29:04,VALID,1001.76,VALID,0,VALID,88.2814,VALID,0.0815089,VALID,25.413,VALID,335,VALID,0.720703,
2011-11-18, 03:30:04,VALID,1001.78,VALID,0,VALID,88.0907,VALID,0.0815089,VALID,25.4734,VALID,337,VALID,0.5125,
2011-11-18, 03:31:04,VALID,1001.78,VALID,0,VALID,87.9534,VALID,0.0815089,VALID,25.4909,VALID,337,VALID,0.627344,
2011-11-18, 03:32:04,VALID,1001.78,VALID,0,VALID,87.7169,VALID,0.0815089,VALID,25.5318,VALID,337,VALID,0.633594,
2011-11-18, 03:33:04,VALID,1001.78,VALID,0,VALID,87.5338,VALID,0.0815089,VALID,25.5298,VALID,338,VALID,0.457422,
2011-11-18, 03:34:04,VALID,1001.76,VALID,0,VALID,87.6558,VALID,0.0815089,VALID,25.5513,VALID,322,VALID,0.553516,
2011-11-18, 03:35:04,VALID,1001.76,VALID,0,VALID,87.8847,VALID,0,VALID,25.5318,VALID,347,VALID,0.704687,
2011-11-18, 03:36:04,VALID,1001.74,VALID,0,VALID,87.8771,VALID,0.0815089,VALID,25.5104,VALID,347,VALID,0.630078,
2011-11-18, 03:37:04,VALID,1001.7,VALID,0,VALID,87.7321,VALID,0.0815089,VALID,25.5104,VALID,346,VALID,0.474609,
2011-11-18, 03:38:04,VALID,1001.66,VALID,0,VALID,87.8847,VALID,0,VALID,25.4909,VALID,346,VALID,0.746094,
2011-11-18, 03:39:04,VALID,1001.65,VALID,0,VALID,87.8466,VALID,0,VALID,25.4909,VALID,346,VALID,0.569922,